This is the latest recevied weather packets stored in our database for station/object WX1NWA. If no packets are shown the sender has not sent any weather packets the latest 10 day(s).
| Time | Temp. | Humidity | Pressure | Rain* | Wind** | Luminosity | Snow |
|---|---|---|---|---|---|---|---|
| 1777614337 | 12.22° C | 63% | 1020 hPa | 0 mm | - | 0 W/m² | - |
| 1777614032 | 11.67° C | 64% | 1020 hPa | 0 mm | - | 0 W/m² | - |
| 1777613728 | 11.67° C | 65% | 1020 hPa | 0 mm | - | 0 W/m² | - |
| 1777613426 | 11.67° C | 65% | 1019.9 hPa | 0 mm | - | 0 W/m² | - |
| 1777613121 | 11.67° C | 65% | 1020 hPa | 0 mm | - | 0 W/m² | - |
| 1777612818 | 12.22° C | 65% | 1019.7 hPa | 0 mm | - | 0 W/m² | - |
| 1777612515 | 12.22° C | 63% | 1019.9 hPa | 0 mm | - | 0 W/m² | - |
| 1777612210 | 11.67° C | 66% | 1019.8 hPa | 0 mm | - | 0 W/m² | - |
| 1777611905 | 11.67° C | 69% | 1019.8 hPa | 0 mm | - | 0 W/m² | - |
| 1777611601 | 11.67° C | 70% | 1019.9 hPa | 0 mm | - | 0 W/m² | - |
| 1777611298 | 11.67° C | 70% | 1020 hPa | 0 mm | - | 0 W/m² | - |
| 1777610995 | 11.67° C | 70% | 1019.9 hPa | 0 mm | - | 0 W/m² | - |
| 1777610690 | 11.67° C | 70% | 1019.7 hPa | 0 mm | - | 0 W/m² | - |
| 1777610389 | 11.67° C | 72% | 1020 hPa | 0 mm | - | 0 W/m² | - |
| 1777610085 | 11.11° C | 72% | 1019.9 hPa | 0 mm | - | 0 W/m² | - |
| 1777609783 | 11.67° C | 71% | 1019.8 hPa | 0 mm | - | 0 W/m² | - |
| 1777609479 | 11.67° C | 70% | 1019.4 hPa | 0 mm | - | 0 W/m² | - |
| 1777609177 | 11.67° C | 70% | 1019.9 hPa | 0 mm | - | 0 W/m² | - |
| 1777608874 | 11.67° C | 69% | 1019.8 hPa | 0 mm | - | 0 W/m² | - |
| 1777608571 | 11.67° C | 69% | 1020 hPa | 0 mm | - | 0 W/m² | - |
| 1777608268 | 11.67° C | 70% | 1019.9 hPa | 0 mm | - | 0 W/m² | - |
| 1777607966 | 11.67° C | 69% | 1019.9 hPa | 0 mm | - | 0 W/m² | - |
| 1777607661 | 11.67° C | 69% | 1019.6 hPa | 0 mm | - | 0 W/m² | - |
| 1777607358 | 11.67° C | 68% | 1019.8 hPa | 0 mm | - | 0 W/m² | - |
| 1777607054 | 11.67° C | 68% | 1019.9 hPa | 0 mm | - | 0 W/m² | - |
* Rain latest hour (hover to see other rain measurements)
** Current wind speed in m/s (hover to see current wind gust speed)